• MPC Preparation (Info)

  • MPEC 2020-K141 : 2020 KP3

    The following Minor Planet Electronic Circular may be linked-to from your own Web pages, but must not otherwise be redistributed electronically.

    A form allowing access to any MPEC is at the bottom of this page.


    Read MPEC 2020-K140 Read MPEC 2020-K142


    M.P.E.C. 2020-K141                                 Issued 2020 May 23, 13:05 UT
    
         The Minor Planet Electronic Circulars contain information on unusual
             minor planets and routine data on comets.  They are published
        on behalf of Division F of the International Astronomical Union by the
              Minor Planet Center, Smithsonian Astrophysical Observatory,
                              Cambridge, MA 02138, U.S.A.
    
                 Prepared using the Tamkin Foundation Computer Network
    
                                  MPC@CFA.HARVARD.EDU
                URL https://www.minorplanetcenter.net/    ISSN 1523-6714
    
                                    2020 KP3                                 
    
    
    Observations:
         K20K03P* C2020 05 22.18961 10 24 48.25 +07 52 40.8          20.3 GVEK141G96
         K20K03P  C2020 05 22.19481 10 24 56.31 +07 53 52.5          19.9 GVEK141G96
         K20K03P  C2020 05 22.20001 10 25 04.08 +07 55 00.5          19.5 GVEK141G96
         K20K03P  C2020 05 22.20522 10 25 12.01 +07 56 10.5          19.7 GVEK141G96
         K20K03P  C2020 05 22.22315 10 25 39.50 +08 00 09.5          20.2 GVEK141I52
         K20K03P  C2020 05 22.22372 10 25 40.40 +08 00 17.4          19.2 GVEK141I52
         K20K03P  C2020 05 22.23374 10 25 56.02 +08 02 32.2          19.6 GVEK141I52
         K20K03P  C2020 05 22.23431 10 25 56.92 +08 02 39.5          19.5 GVEK141I52
         K20K03P  C2020 05 22.25482 10 26 29.41 +08 07 16.8          20.2 GVEK141I52
         K20K03P  C2020 05 22.25539 10 26 30.32 +08 07 23.9          20.6 GVEK141I52
         K20K03P  C2020 05 22.25595 10 26 31.23 +08 07 31.6          20.3 GVEK141I52
         K20K03P  C2020 05 22.25652 10 26 32.14 +08 07 40.3          19.4 GVEK141I52
         K20K03P KC2020 05 22.85035910 45 53.21 +10 41 35.9                VEK141104
         K20K03P KC2020 05 22.85676010 46 06.59 +10 43 27.6          19.1 GVEK141104
         K20K03P KC2020 05 22.86104710 46 15.59 +10 44 41.3          19.1 GVEK141104
         K20K03P IC2020 05 22.87787110 46 50.66 +10 49 21.9          19.9 GVEK141L01
         K20K03P NC2020 05 22.88017810 46 55.53 +10 50 01.6          20.0 GVEK141L01
         K20K03P NC2020 05 22.88163410 46 58.69 +10 50 27.6          19.9 GVEK141L01
         K20K03P NC2020 05 22.88215610 46 59.80 +10 50 36.6          20.0 GVEK141L01
         K20K03P NC2020 05 22.88288810 47 01.46 +10 50 50.0          20.0 GVEK141L01
         K20K03P KC2020 05 22.91066710 48 08.61 +10 58 25.1          19.2 GVEK141J95
         K20K03P KC2020 05 22.94557810 49 25.93 +11 08 47.7          19.2 GVEK141J95
         K20K03P KC2020 05 22.95262610 49 41.78 +11 10 53.6          19.6 GVEK141J95
         K20K03P  C2020 05 23.15436 10 58 07.83 +12 18 26.7          19.8 GVEK141I52
         K20K03P  C2020 05 23.15486 10 58 08.96 +12 18 35.9          19.1 GVEK141I52
         K20K03P  C2020 05 23.15536 10 58 10.13 +12 18 45.7          18.8 GVEK141I52
         K20K03P  C2020 05 23.15585 10 58 11.36 +12 18 55.8                VEK141I52
    
    Observer details:
    104 San Marcello Pistoiese.  Observers P. Bacci, M. Maestripieri.  Measurers
        P. Bacci, L. Tesi, G. Fagioli.  0.60-m reflector + CCD.
    G96 Mt. Lemmon Survey.  Observer D. Rankin.  Measurers E. J. Christensen, G.
        A. Farneth, D. C. Fuls, A. R. Gibbs, A. D. Grauer, H. Groeller, R. A.
        Kowalski, S. M. Larson, G. J. Leonard, T. A. Pruyne, D. Rankin, R. L.
        Seaman, F. C. Shelly, K. W. Wierzchos.  1.5-m reflector + 10K CCD.
    I52 Steward Observatory, Mt. Lemmon Station.  Observers T. A. Pruyne, D. C.
        Fuls.  Measurers E. J. Christensen, G. A. Farneth, D. C. Fuls, A. R.
        Gibbs, A. D. Grauer, H. Groeller, R. A. Kowalski, S. M. Larson, G. J.
        Leonard, T. A. Pruyne, D. Rankin, R. L. Seaman, F. C. Shelly, K. W.
        Wierzchos.  1.0-m reflector + CCD.
    J95 Great Shefford.  Observer P. Birtwhistle.  0.41-m f/6.3 Schmidt-Cassegrain
        + CCD.
    L01 Visnjan Observatory, Tican.  Observer K. Korlevic.  1.0-m f/2.9 reflector
        + CCD.
    
    Orbital elements:
    2020 KP3                                                 Earth MOID = 0.0017 AU
    Epoch 2020 May 31.0 TT = JDT 2459000.5                  Veres
    M   5.42128              (2000.0)            P               Q
    n   0.33527753     Peri.  350.99638     -0.62166763     +0.77908167
    a   2.0521058      Node   240.52236     -0.71273004     -0.60553209
    e   0.5078873      Incl.    5.33884     -0.32487728     -0.16236576
    P   2.94           H   26.0           G   0.15           U   7
    Residuals in seconds of arc
    200522 G96  1.9-  1.2-    200522 I52  0.1-  0.5-    200522 L01  0.7-  0.1-
    200522 G96  1.6+  1.3+    200522 I52  0.1+  0.4-    200522 L01  0.6+  0.6+
    200522 G96  0.3+  0.1+    200522 I52  0.0   0.6+    200522 J95  0.3+  0.6-
    200522 G96  0.5+  0.6+    200522 104  0.1+  0.2-    200522 J95  0.3+  0.5+
    200522 I52  0.3-  0.4-    200522 104  0.2+  0.5+    200522 J95  0.3-  0.1+
    200522 I52  0.1-  0.1-    200522 104  0.2+  0.2-    200523 I52  0.7+  0.3+
    200522 I52  0.0   0.0     200522 L01  0.0   0.0     200523 I52  0.3-  0.4-
    200522 I52  0.1+  0.3-    200522 L01  1.1-  0.5-    200523 I52  0.6-  0.4-
    200522 I52  0.1-  0.1+    200522 L01  0.6-  0.1+    200523 I52  0.2+  0.1+
    
    Ephemeris:
    2020 KP3                 a,e,i = 2.05, 0.51, 5                   q = 1.0099
    Date    TT    R. A. (2000) Decl.     Delta      r    Elong.  Phase     V
    2020 04 23    08 46 05.5 -06 34 20   0.1391  1.0430   101.8    70.7    24.3
    ...
    2020 05 08    08 56 08.1 -04 48 22   0.07808 1.0128    90.4    85.2    23.5
    ...
    2020 05 16    09 16 06.1 -01 57 42   0.04365 1.0097    86.9    90.6    22.4
    ...
    2020 05 22    10 20 08.2 +07 14 55   0.01853 1.0135    93.1    85.8    20.4
    2020 05 23    10 51 53.6 +11 32 09   0.01487 1.0147    97.8    81.3    19.7
    2020 05 24    11 44 16.2 +17 49 18   0.01179 1.0160   105.6    73.8    19.0
    ...
    2020 05 30    18 59 07.5 +19 09 09   0.02215 1.0266   124.9    54.1    19.8
    ...
    2020 06 07    19 57 09.9 +11 54 55   0.05670 1.0482   124.7    52.8    21.8
    ...
    2020 06 22    20 09 17.7 +08 02 39   0.1239  1.1088   136.0    39.6    23.3
    
    M. P. C. Staff               (C) Copyright 2020 MPC           M.P.E.C. 2020-K141
    


    Read MPEC 2020-K140 Read MPEC 2020-K142


    MPEC number:

    Enter an MPEC number in one of the following forms:

    • 1997-B01 (the full form)
    • J97B01 (the packed version of the full form)
    • B01 (the abbreviated form)